Change the Weather History Date:

Wednesday, October 9, 2013

  Actual Average Record
Temperature  
Mean Temperature 48 °F -  
Max Temperature 60 °F 66 °F 81 °F (1996)
Min Temperature 35 °F 29 °F 23 °F (1989)
Degree Days  
Heating Degree Days 18    
Moisture  
Dew Point 26 °F    
Average Humidity 44    
Maximum Humidity 66    
Minimum Humidity 23    
Precipitation  
Precipitation 0.01 in - - ()
Sea Level Pressure  
Sea Level Pressure 29.68 in    
Wind  
Wind Speed 7 mph (SSW)    
Max Wind Speed 26 mph    
Max Gust Speed 45 mph    
Visibility 10 miles    
Events Rain    
Averages and records for this station are not official NWS values.
T = Trace of Precipitation, MM = Missing Value Source: NWS Daily Summary

Daily Weather History Graph

Daily Weather History Graph

Search for Another Location

Airport or City:

Trip Planner

Search our weather history database for the weather conditions in past years. The results will help you decide how hot, cold, wet, or windy it might be!

Date:

Astronomy

Oct. 09, 2013 Rise Set
Actual Time 6:30 AM MST 6:00 PM MST
Civil Twilight 6:04 AM MST 6:26 PM MST
Nautical Twilight 5:35 AM MST 6:55 PM MST
Astronomical Twilight 5:05 AM MST 7:25 PM MST
Moon 11:22 AM MST (10/9) 9:46 PM MST (10/9)
Length of Visible Light 12h 21m
Length of Day
11h 30m
Waxing Crescent, 26% of the Moon is Illuminated
Oct 9
Waxing Crescent
Oct 11
First Quarter
Oct 18
Full
Oct 26
Last Quarter
Nov 3
New

Hourly Weather History & Observations

Time (MST) Temp. Windchill Dew Point Humidity Pressure Visibility Wind Dir Wind Speed Gust Speed Precip Events Conditions
12:54 AM 36.0 °F - 21.9 °F 57% 29.75 in 10.0 mi Calm Calm - N/A   Clear
1:54 AM 36.0 °F - 21.9 °F 57% 29.73 in 10.0 mi Calm Calm - N/A   Clear
2:54 AM 36.0 °F - 23.0 °F 59% 29.71 in 10.0 mi Calm Calm - N/A   Clear
3:54 AM 35.1 °F - 23.0 °F 61% 29.71 in 10.0 mi Calm Calm - N/A   Clear
4:54 AM 36.0 °F - 25.0 °F 64% 29.70 in 10.0 mi Calm Calm - N/A   Clear
5:54 AM 43.0 °F 40.3 °F 26.1 °F 51% 29.67 in 10.0 mi SSE 4.6 mph - N/A   Clear
6:54 AM 45.0 °F 41.8 °F 25.0 °F 46% 29.69 in 10.0 mi South 5.8 mph - N/A   Clear
7:54 AM 50.0 °F - 25.0 °F 38% 29.70 in 10.0 mi SSE 9.2 mph - N/A   Clear
8:54 AM 54.0 °F - 25.0 °F 33% 29.69 in 10.0 mi South 10.4 mph 26.5 mph N/A   Clear
9:54 AM 55.9 °F - 21.9 °F 27% 29.68 in 10.0 mi South 12.7 mph 28.8 mph N/A   Clear
10:54 AM 57.0 °F - 23.0 °F 27% 29.70 in 10.0 mi South 13.8 mph 26.5 mph N/A   Clear
11:54 AM 60.1 °F - 21.9 °F 23% 29.69 in 10.0 mi SSW 15.0 mph 29.9 mph N/A   Clear
12:54 PM 59.0 °F - 21.0 °F 23% 29.67 in 10.0 mi SSW 20.7 mph 32.2 mph N/A   Clear
1:54 PM 57.9 °F - 21.0 °F 24% 29.68 in 10.0 mi SSW 19.6 mph 33.4 mph N/A   Clear
2:54 PM 55.9 °F - 23.0 °F 28% 29.67 in 10.0 mi SSW 17.3 mph 27.6 mph N/A   Scattered Clouds
3:54 PM 55.0 °F - 26.1 °F 33% 29.69 in 10.0 mi SSW 13.8 mph 32.2 mph N/A   Mostly Cloudy
4:54 PM 54.0 °F - 28.0 °F 37% 29.68 in 10.0 mi South 12.7 mph 26.5 mph N/A   Mostly Cloudy
5:54 PM 52.0 °F - 30.9 °F 45% 29.67 in 10.0 mi SW 13.8 mph 19.6 mph N/A   Partly Cloudy
6:54 PM 51.1 °F - 30.0 °F 44% 29.66 in 10.0 mi SSW 11.5 mph 20.7 mph N/A   Partly Cloudy
7:54 PM 48.9 °F - 34.0 °F 56% 29.65 in 10.0 mi SSW 9.2 mph - N/A   Overcast
8:54 PM 48.9 °F - 35.1 °F 59% 29.63 in 10.0 mi South 6.9 mph - N/A   Overcast
9:54 PM 46.0 °F 41.9 °F 35.1 °F 66% 29.63 in 10.0 mi South 8.1 mph - 0.00 in   Overcast
10:54 PM 48.0 °F - 34.0 °F 58% 29.59 in 10.0 mi South 15.0 mph 23.0 mph 0.01 in   Overcast
11:54 PM 46.9 °F - 26.1 °F 44% 29.58 in 10.0 mi SSW 26.5 mph 44.9 mph 0.00 in Rain Light Rain